This is the latest recevied weather packets stored in our database for station/object W1RCY. If no packets are shown the sender has not sent any weather packets the latest 10 day(s).
| Time | Temp. | Humidity | Pressure | Rain* | Wind** | Luminosity | Snow |
|---|---|---|---|---|---|---|---|
| 1777893601 | 7.22° C | 73% | 1007.9 hPa | 0 mm | - | 49 W/m² | - |
| 1777893297 | 7.22° C | 72% | 1007.8 hPa | 0 mm | - | 32 W/m² | - |
| 1777892994 | 7.22° C | 73% | 1007.9 hPa | 0 mm | - | 42 W/m² | - |
| 1777892691 | 6.67° C | 73% | 1007.6 hPa | 0 mm | - | 51 W/m² | - |
| 1777892386 | 6.67° C | 73% | 1007.8 hPa | 0 mm | - | 40 W/m² | - |
| 1777892083 | 6.67° C | 73% | 1007.8 hPa | 0 mm | - | 76 W/m² | - |
| 1777891780 | 6.67° C | 72% | 1007.7 hPa | 0 mm | - | 45 W/m² | - |
| 1777891477 | 6.67° C | 72% | 1007.7 hPa | 0 mm | - | 42 W/m² | - |
| 1777891172 | 6.67° C | 72% | 1007.8 hPa | 0 mm | - | 28 W/m² | - |
| 1777890866 | 6.67° C | 72% | 1007.6 hPa | 0 mm | - | 26 W/m² | - |
| 1777890563 | 6.67° C | 72% | 1007.6 hPa | 0 mm | - | 28 W/m² | - |
| 1777890258 | 6.67° C | 72% | 1007.5 hPa | 0 mm | - | 30 W/m² | - |
| 1777889955 | 6.11° C | 73% | 1007.7 hPa | 0 mm | - | 29 W/m² | - |
| 1777889653 | 5.56° C | 74% | 1007.7 hPa | 0 mm | - | 30 W/m² | - |
| 1777889349 | 5.56° C | 72% | 1007.5 hPa | 0 mm | - | 29 W/m² | - |
| 1777889047 | 5.56° C | 72% | 1007.7 hPa | 0 mm | - | 25 W/m² | - |
| 1777888744 | 5.56° C | 71% | 1007.5 hPa | 0 mm | - | 18 W/m² | - |
| 1777888441 | 5.56° C | 72% | 1007.6 hPa | 0 mm | - | 12 W/m² | - |
| 1777888136 | 5.56° C | 72% | 1007.5 hPa | 0 mm | - | 9 W/m² | - |
| 1777887834 | 5.56° C | 71% | 1007.3 hPa | 0 mm | - | 5 W/m² | - |
| 1777887531 | 5.56° C | 71% | 1007.3 hPa | 0 mm | - | 2 W/m² | - |
| 1777887227 | 5.56° C | 71% | 1007.3 hPa | 0 mm | - | 0 W/m² | - |
| 1777886922 | 5.56° C | 71% | 1007.4 hPa | 0 mm | - | 0 W/m² | - |
| 1777886618 | 5.56° C | 72% | 1007.5 hPa | 0 mm | - | 0 W/m² | - |
| 1777886316 | 5.56° C | 72% | 1007.4 hPa | 0 mm | - | 0 W/m² | - |
* Rain latest hour (hover to see other rain measurements)
** Current wind speed in m/s (hover to see current wind gust speed)